Weather in Snizha

Russia / Kursk Oblast     52°07′04″N   35°11′16″E
temp.,
°C
wind,
m/s
gust,
m/s
humid.,
%
clouds,
%
prec.,
mm/h
press.,
hPa
HPBL,
m
25 february, thu
thu2500:00−5sw3696100 0.2 1031250
03:00−3sw4797100 0.3 1029251
06:00−2sw4897100 0.0 1027263
09:000wsw51097100 0.0 1026331
12:00+2wsw611100100 0.1 1024283
15:00+2w714100100 0.1 1022330
18:00+3w512100100 0.1 1022234
21:00+2w511100100 0.1 1022250
26 february, fri
fri2600:00+2wnw510100100 0.0 1022279
03:00+2w49100100 0.0 1022181
06:00+2w510100100 0.0 1020242
09:00+2wsw511100100 0.0 1019275
12:00+3wsw714100100 0.0 1017386
15:00+3w613100100 0.0 1016323
18:00+2w61399100 0.1 1014356
21:00+2w51398100 0.1 1014422
27 february, sat
sat2700:00+1w51395100 0.0 1012469
03:00+1w4995100 0.0 1011355
06:00+1w61197100 0.1 1009521
09:00+1wnw61197100 0.2 1009495
12:00+1w61110098 0.1 1008601
15:00+1wnw6119999 0.3 1008500
18:00+1nw51098100 0.1 1008465
21:000nw51092100 0.2 1010522
28 february, sun
sun2800:000nnw6119599 0.1 1012606
03:00−1n61187100 0.3 1015799
06:00−2n6108297 0.1 1016882
09:00−3n6108399 0.1 1018792
12:00−2n698598 0.0 1020772
15:00−1nnw588698 0.1 1020892
18:00−1nnw4892100 0.1 1021484
21:00−2nnw389698 0.3 1023344
1 march, mon
mon100:00−3n269396 0.1 1024207
03:00−2nnw3692100 0.2 1027337
06:00−3nnw369499 0.1 1028314
09:00−3nnw359199 0.2 1030466
12:00−1nnw347793 0.1 1031844
15:00−1nnw348289 0.1 1031653
18:00−3wnw238817 0.0 103146
21:00−3wnw359236 0.0 1032127